Location: Aalen
(48.8330°N, 10.1000°E)
Time: 20:32:04
(UTC+02:00)

S-56A Canister/Altair - Pass Details

Date: 10 August 2021
Orbit: 632 x 2500 km, 38.9° (Epoch: 19 September)

Event Time Altitude Azimuth Distance (km) Brightness Sun altitude
Rises 20:27:47 0° 279° (W) 5,981 14.2 1.5°
Reaches altitude 10° 20:33:18 10° 264° (W) 5,113 12.9 0.7°
Maximum altitude 20:42:07 19° 228° (SW) 4,444 11.7 -0.6°
Drops below altitude 10° 20:50:45 10° 191° (S) 4,959 11.5 -1.9°
Sets 20:56:03 0° 175° (S) 5,740 11.7 -2.7°
